Hourly Weather Roundup
Issued by NWS

Home | Current Version | Previous Version | Text Only | Print | Product List | Glossary On
Versions: 1 2 3 4 5 6 7 8 9 10 11 12 13 14 15 16 17 18 19 20 21 22 23 24 25 26 27 28 29 30 31 32 33 34 35 36 37 38 39 40 41 42 43 44 45 46 47 48 49 50
683
NZUS43 KILX 281010
HWRCRS

NWR Hourly Weather Roundup
National Weather Service Lincoln IL
400 AM CST TUE FEB 28 2017


CITY           SKY/WX    TMP DP  RH WIND       PRES   REMARKS
Champaign      CLOUDY    50  46  86 S16       29.91F
Lawrenceville  CLOUDY    51  50  96 S5        30.01S
Peoria         CLOUDY    52  49  89 S14       29.84F
Springfield    MOCLDY    54  49  83 S15       29.86F
$$


CITY           SKY/WX    TMP DP  RH WIND       PRES   REMARKS
Bloomington    CLOUDY    49  47  93 S14       29.89F
Decatur        PTCLDY    50  47  89 S15       29.90F
Effingham      LGT RAIN  51  50  99 SE9       29.97R
Flora          CLOUDY    53  50  89 S6        29.97S
Galesburg      CLOUDY    48  46  93 SE7       29.80F
Jacksonville   CLOUDY    54  50  86 S15       29.84F
Lacon          CLOUDY    50  48  92 S8        29.83F
La Salle       CLOUDY    48  45  87 S12       29.85F
Lincoln        CLOUDY    51  50  95 S13       29.87F
Litchfield     PTCLDY    51  49  93 S14       29.89F

CITY           SKY/WX    TMP DP  RH WIND       PRES   REMARKS
Macomb         MOCLDY    52  48  86 S10       29.82F
Mattoon        PTCLDY    50  48  93 S16G22    29.93F
Moline         CLOUDY    52  48  86 S9        29.79F
Olney          CLOUDY    50  50 100 S5        29.98S
Paris          CLOUDY    48  47  97 S12       29.96F
Pontiac        CLOUDY    49  48  95 S15       29.89F
Quincy         CLOUDY    54  50  86 S13       29.78F
Rantoul        CLOUDY    50  49  93 S12       29.91F
Robinson       CLOUDY    49  48  96 SE12      29.99F
Taylorville    MOCLDY    50  48  93 S14       29.89F
Terre Haute    LGT RAIN  49  47  93 S8        29.99F
$$


CITY           SKY/WX    TMP DP  RH WIND       PRES   REMARKS
Burlington     MOCLDY    51  47  86 S10       29.76F
Chicago        CLOUDY    49  45  86 S16       29.85F
Des Moines     CLOUDY    50  41  71 SE7       29.66F
Evansville     CLOUDY    52  48  86 S8        30.01F
Indianapolis   LGT RAIN  45  42  89 SE10      30.01F
Kansas City    CLOUDY    62  57  83 S17G26    29.68S
Milwaukee      CLOUDY    42  39  89 SE13      29.88F FOG
St Louis       PTCLDY    56  51  84 S10       29.87F
$$





USA.gov is the U.S. government's official web portal to all federal, state and local government web resources and services.